www.pogodaiklimat.ru

Погода и климат >> Архив погоды >> Босния и Герцеговина >> Тузла


ПОГОДА в Тузле

  • Прогноз погоды в Тузле
  • Монитор погоды в Тузле

АРХИВ ПОГОДЫ в Тузле

Время (UTC), дата Ветер
(напр.,м/с)
 
Видим.   Явления Облачность Т
(С)
Тd
(С)
f
(%)
Тe
(С)
Тes
(С)
Комфортность P
(гПа)
Po
(гПа)
Тmin
(С)
Tmax
(С)
R
(мм)
R24
(мм)
S
(см)
20 10.09 штиль 0 10 км 3/0
[Ac trans]
+15.6 +13.7 88 +15 +15 1020.0 984.2
06 11.09 штиль 0 15 км 5/0
[Ac trans]
+13.2 +12.3 94 +13 +14 1022.3 986.1 +11.5 +23.3
07 11.09 З 2 15 км 5/0
[Ac trans]
+15.7 +13.1 85 +16 +19 1022.4 986.5
08 11.09 ЮЗ 2 15 км 5/0
[Ac trans]
+18.4 +14.1 76 +19 +24 1022.0 986.5
09 11.09 ЮЗ 1 15 км 4/0
[Ac trans]
+20.2 +14.4 69 +24 +33 комфорт 1021.8 986.5
10 11.09 ЮЗ 2 15 км 5/0
[Ac trans]
+21.3 +14.4 65 +24 +33 комфорт 1021.6 986.4
11 11.09 Ю 1 15 км 5/0
[Ac trans]
+22.8 +14.2 58 +26 +36 жарко 1021.4 986.4
12 11.09 ЮВ 1 20 км 6/1 1000 м
[Cu hum Ac trans Ci sp]
+24.4 +14.6 54 +27 +35 жарко 1021.1 986.3
13 11.09 В 1 20 км 8/3 1000 м
[Cu hum Ac trans Ci sp]
+25.0 +14.6 52 +28 +32 жарко 1021.0 986.3
14 11.09 СВ 1 20 км 9/3 1000 м
[Cu hum Ac trans Ci sp]
+24.2 +15.1 57 +27 +30 жарко 1021.0 986.2
15 11.09 В 1 20 км 8/1 1000 м
[Cu hum Ac trans Ci sp]
+23.9 +15.3 59 +27 +29 жарко 1020.9 986.0
20 11.09 С 1 10 км 5/0
[Ac trans]
+17.3 +15.3 88 +18 +18 1023.8 988.1
06 12.09 С 1 15 км 6/0
[Ac trans]
+13.6 +12.8 95 +14 +15 1027.2 990.9 +12.4 +25.0
07 12.09 штиль 0 15 км 5/0
[Ac trans]
+15.9 +14.7 93 +16 +19 1027.8 991.8
08 12.09 ЮЗ 1 15 км 6/0
[Ac trans Ci sp]
+18.8 +15.7 82 +21 +27 комфорт 1028.1 992.4
09 12.09 ЮЗ 2 15 км 6/0
[Ac trans Ci sp]
+21.1 +15.7 71 +24 +32 комфорт 1028.4 993.0
10 12.09 ЮЗ 1 20 км 8/3 1000 м
[Cu hum Ac trans Ci sp]
+21.8 +16.5 72 +26 +32 душно 1028.3 993.0
11 12.09 З 2 20 км 8/3 1000 м
[Cu hum Ac trans Ci sp]
+23.0 +16.0 65 +27 +33 душно 1028.1 993.0
12 12.09 З 2 20 км 5/3 1000 м
[Cu hum Ac trans Ci sp]
+24.6 +14.9 55 +27 +34 жарко 1027.9 992.9
13 12.09 ЮЗ 1 20 км 5/5 800 м
[Cu med, cong]
+24.6 +14.3 53 +27 +32 жарко 1027.8 992.8
14 12.09 ЮЗ 1 20 км 5/5 800 м
[Cu med, cong]
+26.0 +12.7 44 +28 +31 жарко 1027.4 992.6
15 12.09 З 1 20 км 5/5 800 м
[Cu med, cong]
+26.6 +12.0 40 +28 +29 жарко 1027.1 992.3
20 12.09 С 1 10 км 6/0
[Ac trans]
+17.6 +15.0 85 +19 +19 1030.0 994.1
06 13.09 СВ 1 15 км ясно +12.1 +11.7 97 +12 +14 1031.9 995.2 +11.1 +26.6
07 13.09 ЮЗ 1 15 км ясно +15.9 +13.5 86 +17 +21 1031.5 995.3
08 13.09 ЮЗ 2 15 км 1/1 1000 м
[Cu hum]
+18.8 +15.7 82 +20 +27 1031.4 995.6
09 13.09 ЮЗ 2 20 км 3/1 1000 м
[Cu hum Ac trans]
+21.3 +16.0 72 +25 +32 комфорт 1030.7 995.2
10 13.09 З 2 20 км 5/3 800 м
[Cu hum Ac trans]
+22.0 +14.7 63 +25 +32 комфорт 1030.6 995.2
11 13.09 З 1 25 км 4/3 800 м
[Cu hum Ac trans]
+23.7 +13.8 54 +26 +35 жарко 1029.7 994.5
12 13.09 З 2 30 км 4/3 800 м
[Cu hum Ac trans]
+24.4 +12.6 48 +26 +33 жарко 1029.2 994.1
13 13.09 З 1 30 км 4/3 800 м
[Cu hum Ac trans]
+24.7 +12.4 46 +26 +33 жарко 1028.5 993.5
14 13.09 С 1 30 км 4/3 800 м
[Cu hum Ac trans]
+25.6 +16.4 57 +29 +33 душно 1027.7 992.8
15 13.09 З 1 30 км 3/3 800 м
[Cu hum]
+26.4 +12.0 41 +28 +30 жарко 1027.6 992.8
20 13.09 В 1 10 км 4/0
[Ac trans]
+16.0 +12.8 81 +17 +17 1030.2 994.1
06 14.09 штиль 0 30 км 8/0
[Ac trans]
+13.2 +12.1 93 +13 +14 1030.5 994.0 +10.5 +26.4
07 14.09 ЮВ 1 30 км 8/0
[Ac trans]
+15.1 +13.2 88 +16 +18 1030.7 994.4
08 14.09 ЮЗ 1 30 км 6/0
[Ac trans]
+17.5 +13.3 76 +19 +24 1030.4 994.5
09 14.09 ЮЗ 2 30 км 3/1 1000 м
[Cu hum Ac trans]
+20.0 +14.7 72 +23 +30 комфорт 1029.9 994.3
10 14.09 ЮЗ 2 30 км 3/1 800 м
[Cu hum Ac trans]
+23.0 +16.2 66 +28 +37 душно 1028.9 993.7
12 14.09 З 2 30 км 5/3 800 м
[Cu hum Ac trans]
+24.5 +13.1 49 +27 +33 жарко 1027.5 992.4
13 14.09 З 2 30 км 6/3 800 м
[Cu hum Ac trans Ci sp]
+25.3 +14.3 51 +28 +32 жарко 1027.0 992.1
14 14.09 З 1 30 км 5/3 800 м
[Cu hum Ac trans Ci sp]
+25.5 +11.6 42 +27 +31 жарко 1026.7 991.8
15 14.09 ЮЗ 1 30 км 4/1 800 м
[Cu hum Ac trans Ci sp]
+25.9 +13.5 46 +28 +30 жарко 1026.5 991.6
20 14.09 штиль 0 10 км 3/0
[Ac trans]
+17.0 +14.0 82 +17 +17 1028.7 992.8
06 15.09 СВ 1 15 км ясно +12.3 +11.3 94 +12 +14 1029.2 992.6 +11.2 +25.9
07 15.09 штиль 0 15 км ясно +15.7 +13.5 87 +15 +20 1029.0 992.9
08 15.09 З 1 15 км ясно +18.7 +13.4 71 +21 +28 комфорт 1028.5 992.8
09 15.09 Ю 1 20 км 1/1 1000 м
[Cu hum]
+21.8 +13.5 59 +25 +35 комфорт 1027.7 992.3
10 15.09 ЮВ 1 20 км 1/1 1000 м
[Cu hum]
+24.0 +14.5 55 +27 +39 жарко 1026.8 991.8
11 15.09 В 2 20 км 3/3 1000 м
[Cu hum]
+24.9 +12.4 46 +27 +35 жарко 1026.4 991.5
12 15.09 ЮВ 1 20 км 3/3 1000 м
[Cu hum]
+26.4 +12.6 42 +28 +37 жарко 1024.8 990.1
13 15.09 В 2 20 км 1/1 1000 м
[Cu hum]
+26.7 +11.3 38 +28 +35 жарко 1024.4 989.7
14 15.09 Ю 1 20 км ясно +27.4 +11.2 36 +28 +34 жарко 1023.4 988.8
15 15.09 С 1 20 км ясно +27.6 +11.9 38 +29 +32 жарко 1022.8 988.2
20 15.09 С 2 10 км ясно +15.7 +12.6 82 +16 +16 1023.9 987.9
06 16.09 штиль 0 15 км ясно +11.9 +11.1 95 +11 +13 1022.4 986.0 +9.1 +27.6
07 16.09 Ю 1 20 км 1/0
[As trans]
+16.0 +12.8 81 +17 +21 1021.9 986.0
08 16.09 ЮЗ 1 20 км 3/0
[As trans]
+19.1 +13.1 68 +21 +28 комфорт 1021.5 986.0
09 16.09 ЮЗ 1 20 км 3/0
[As trans]
+22.6 +13.9 58 +26 +35 жарко 1020.9 985.8
10 16.09 ЮЗ 1 20 км 3/0
[As trans]
+24.5 +14.8 55 +27 +38 жарко 1020.0 985.3
11 16.09 ЮЗ 1 20 км 3/0
[As trans]
+26.5 +14.1 46 +29 +40 жарко 1019.1 984.6
12 16.09 ЮЗ 1 20 км 4/0
[Ci sp]
+27.7 +12.1 38 +29 +40 жарко 1018.6 984.2
13 16.09 ЮЗ 1 20 км 4/0
[Ci sp]
+28.7 +12.2 36 +30 +38 жарко 1017.4 983.2
14 16.09 Ю 1 20 км 6/0
[Ci sp]
+29.5 +11.9 34 +30 +36 жарко 1016.7 982.6
15 16.09 З 1 20 км 5/0
[Ci sp]
+29.4 +13.0 36 +31 +33 жарко 1016.3 982.2
16 16.09 Ю 1 20 км 5/0
[Ci sp]
+28.5 +13.2 39 +30 +31 жарко 1016.2 982.0
17 16.09 С 2 20 км 3/0
[Ci sp]
+25.2 +12.8 46 +27 +27 жарко 1016.5 982.0
18 16.09 СВ 1 10 км ясно +19.5 +13.2 67 +22 +22 комфорт 1017.2 982.0
19 16.09 С 2 10 км ясно +17.7 +12.5 72 +18 +18 1017.7 982.2
20 16.09 СВ 2 10 км 3/0
[Ci sp]
+15.9 +12.6 81 +16 +16 1018.3 982.5
06 17.09 ЮВ 1 30 км 1/0
[Ac trans]
+11.7 +10.9 95 +11 +13 1017.3 981.1 +9.6 +29.5
07 17.09 Ю 1 30 км 1/0
[Ac trans]
+16.1 +12.0 77 +17 +21 1016.9 981.3
08 17.09 ЮЗ 1 30 км 1/0
[Ac trans]
+19.2 +12.3 64 +21 +29 комфорт 1016.5 981.3
09 17.09 Ю 1 30 км 3/0
[Ac trans]
+23.0 +13.7 56 +26 +35 жарко 1016.1 981.3
10 17.09 ЮЗ 1 30 км 3/0
[Ac trans]
+25.5 +13.4 47 +28 +38 жарко 1015.5 981.0
11 17.09 ЮЗ 1 30 км 3/1 800 м
[Cu hum Ci sp]
+27.5 +14.2 44 +30 +41 жарко 1014.3 980.1
12 17.09 Ю 1 30 км 3/1 800 м
[Cu hum Ci sp]
+29.0 +15.2 43 +32 +42 душно 1013.2 979.2
13 17.09 ЮЗ 2 30 км 3/1 800 м
[Cu hum Ci sp]
+29.8 +11.2 32 +30 +37 жарко 1012.8 978.8
14 17.09 ЮЗ 2 30 км 3/1 800 м
[Cu hum Ci sp]
+30.6 +14.6 38 +33 +37 душно 1011.8 978.0
15 17.09 З 1 30 км 3/1 800 м
[Cu hum Ci sp]
+30.2 +10.4 29 +30 +32 жарко 1011.9 978.0
16 17.09 В 1 20 км 1/0
[Ac trans]
+28.6 +13.3 39 +30 +31 жарко 1011.9 977.9

 

Местоположение метеостанции Тузла (Босния и Герцеговина): широта 44.55 долгота 18.70 высота над уровнем моря 307 м.

В архиве по умолчанию представлена погода в Тузле за последнюю неделю. Архивные данные за месяц целиком и за предыдущие месяцы, начиная с января 2011 года, Вы можете получить, выбрав интересующий диапазон дат из раскрывающегося списка и нажав кнопку "Ввод!".


*Определитесь, кто Вы:
робот инопланетянин человек

Внимание! Время в таблицах - всемирное. Для получения местного времени необходимо прибавить поправку, которая равна 1 ч.

Смотрите также архив погоды в соседних городах и на ближайших метеорологических станциях:

Погода в Лознице (Сербия) (42 км)
Погода в Градачаце (Босния и Герцеговина) (42 км)
Погода в Градиште (Хорватия) (67 км)
Погода в Зенице (Босния и Герцеговина) (73 км)
Погода в Сараево (Босния и Герцеговина) (79 км)
Погода в Славонски-Броде (Хорватия) (88 км)
Погода в Сремска-Митровице (Сербия) (91 км)
Погода на Белашнице (Босния и Герцеговина) (98 км)
Погода в Валево (Сербия) (100 км)
Погода в Иван-Седле (Босния и Герцеговина) (102 км)

Пояснения к столбцам:

Ветер - указаны скорость ветра в м/с - средняя за 10 мин, порывы в срок и между сроками (в фигурных скобках) и направление, откуда дует ветер: С - северный, СВ - северо-восточный, В - восточный, ЮВ - юго-восточный, Ю - южный, ЮЗ - юго-западный, З - западный, СЗ - северо-западный.
Видимость - горизонтальная дальность видимости в метрах или километрах. При видимости от 1 до 10 км при отсутствии осадков обычно наблюдается дымка, при ухудшении видимости до 1 км и менее - туман. В сухую погоду видимость может ухудшаться дымом, пылью или мглою.
Явления - указаны атмосферные явления, наблюдавшиеся в срок или в последний час перед сроком; фигурными скобками обозначены явления, наблюдавшиеся между сроками (за 1-3 часа до срока); квадратными скобками обозначены град или гололедные отложения с указанием их диаметра в мм.
Облачность - указаны через наклонную черту общая и нижняя облачность в баллах и высота нижней границы облаков в метрах; квадратными скобками обозначены формы облаков: Ci - перистые, Cs - перисто-слоистые, Cc - перисто-кучевые, Ac - высококучевые, As - высокослоистые, Sc - слоисто-кучевые, Ns - слоисто-дождевые, Cu - кучевые, Cb - кучево-дождевые. Подробнее классификацию облаков см. в Атласе облаков (PDF).
T - Температура воздуха - температура, измеренная на высоте 2 м над землей.
Td - Температура точки росы - температура, при понижении до которой содержащийся в воздухе водяной пар достигнет насыщения.
f - Относительная влажность воздуха - влажноcть воздуха, измеренная на высоте 2 м над землей.
Te - Эффективная температура - температура, которую ощущает одетый по сезону человек в тени. Характеристика душности погоды. При расчете учитывается влияние влажности воздуха и скорости ветра на теплоощущения человека.
Tes - Эффективная температура на солнце - температура, которую ощущает человек, с поправкой на солнечный нагрев. Характеристика знойности погоды. Зависит от высоты солнца над горизонтом, облачности и скорости ветра. Ночью, в пасмурную погоду, а также при ветре 12 м/с и более поправка равна нулю.
P - Атмосферное давление - приведенное к уровню моря атмосферное давление.
Po - Атмосферное давление - измеренное на уровне метеостанции атмосферное давление.
Tmin - Минимальная температура - минимум температуры воздуха на высоте 2 м над землей.
Tmax - Максимальная температура - максимум температуры воздуха на высоте 2 м над землей.
R - Количество осадков - Количество выпавших осадков за период времени, мм. При наведении курсора мыши на число - период времени, за который выпало указанное количество осадков.
R24 - Количество осадков - Количество выпавших осадков за 24 часа, мм.
S - Снежный покров - Высота снежного покрова, см. При наведении курсора мыши на число - состояние снежного покрова и степень покрытия местности в баллах.